Hayward, WI

3:37 AM CDT on May 24, 2017 (GMT -0500)
Sawyer County

Weather History for KHYR - January, 2013

Change the Weather History Date:

Saturday, January 5, 2013

  Actual Average Record
Temperature  
Mean Temperature 14 °F -  
Max Temperature 28 °F 25 °F 43 °F (2012)
Min Temperature 1 °F 7 °F -26 °F (2014)
Degree Days  
Heating Degree Days 50    
Moisture  
Dew Point 9 °F    
Average Humidity 77    
Maximum Humidity 87    
Minimum Humidity 56    
Precipitation  
Precipitation 0.00 in - - ()
Sea Level Pressure  
Sea Level Pressure 29.99 in    
Wind  
Wind Speed 1 mph (SSE)    
Max Wind Speed 8 mph    
Max Gust Speed -    
Visibility 9 miles    
Events      
Averages and records for this station are not official NWS values.
T = Trace of Precipitation, MM = Missing Value Source: NWS Daily Summary

Daily Weather History Graph

Daily Weather History Graph

Search for Another Location

Airport or City:

Trip Planner

Search our weather history database for the weather conditions in past years. The results will help you decide how hot, cold, wet, or windy it might be!

Date:

Astronomy

Jan. 05, 2013 Rise Set
Actual Time 7:47 AM CST 4:35 PM CST
Civil Twilight 7:13 AM CST 5:09 PM CST
Nautical Twilight 6:35 AM CST 5:47 PM CST
Astronomical Twilight 5:59 AM CST 6:23 PM CST
Moon 12:42 AM CST (1/5) 11:35 AM CST (1/5)
Length of Visible Light 9h 56m
Length of Day
8h 47m
Last Quarter, 44% of the Moon is Illuminated
Jan 5
Last Quarter
Jan 11
New
Jan 18
First Quarter
Jan 26
Full
Feb 3
Last Quarter

Hourly Weather History & Observations

Time (CST) Temp. Windchill Dew Point Humidity Pressure Visibility Wind Dir Wind Speed Gust Speed Precip Events Conditions
12:53 AM 3.0 °F - -0.0 °F 87% 30.15 in 10.0 mi Calm Calm - N/A   Clear
1:53 AM 3.9 °F - -0.9 °F 80% 30.14 in 10.0 mi Calm Calm - N/A   Clear
2:53 AM 3.0 °F - -2.0 °F 80% 30.13 in 10.0 mi Calm Calm - N/A   Clear
3:53 AM 3.0 °F - -2.0 °F 80% 30.13 in 10.0 mi Calm Calm - N/A   Clear
4:53 AM 1.9 °F - -2.9 °F 80% 30.11 in 10.0 mi Calm Calm - N/A   Clear
5:53 AM 1.0 °F - -4.0 °F 79% 30.09 in 10.0 mi Calm Calm - N/A   Clear
6:53 AM 7.0 °F - 3.9 °F 87% 30.07 in 10.0 mi Calm Calm - N/A   Clear
7:53 AM 14.0 °F 5.1 °F 10.0 °F 84% 30.03 in 9.0 mi SSE 5.8 mph - N/A   Clear
8:53 AM 16.0 °F - 10.9 °F 81% 30.03 in 10.0 mi Calm Calm - N/A   Clear
9:53 AM 19.9 °F 10.1 °F 14.0 °F 78% 30.01 in 10.0 mi South 8.1 mph - N/A   Clear
10:53 AM 23.0 °F 14.7 °F 14.0 °F 68% 29.99 in 10.0 mi South 6.9 mph - N/A   Clear
11:53 AM 25.0 °F 19.3 °F 14.0 °F 63% 29.95 in 10.0 mi SE 4.6 mph - N/A   Clear
12:53 PM 27.0 °F - 15.1 °F 61% 29.93 in 10.0 mi Calm Calm - N/A   Clear
1:53 PM 28.0 °F - 15.1 °F 58% 29.90 in 10.0 mi Calm Calm - N/A   Clear
2:53 PM 28.9 °F - 15.1 °F 56% 29.89 in 10.0 mi Calm Calm - N/A   Clear
3:53 PM 28.0 °F - 15.1 °F 58% 29.88 in 10.0 mi Calm Calm - N/A   Clear
5:53 PM 19.9 °F - 12.9 °F 74% 29.92 in 8.0 mi Calm Calm - N/A   Clear
6:53 PM 15.1 °F - 10.9 °F 84% 29.94 in 7.0 mi Calm Calm - N/A   Clear
7:53 PM 12.9 °F - 9.0 °F 84% 29.94 in 6.0 mi Calm Calm - N/A   Clear
8:53 PM 12.0 °F - 8.1 °F 84% 29.95 in 5.0 mi Calm Calm - N/A   Mostly Cloudy
9:53 PM 18.0 °F - 14.0 °F 84% 29.94 in 7.0 mi Calm Calm - N/A   Overcast
10:09 PM 19.4 °F - 15.8 °F 86% 29.88 in 6.0 mi Calm Calm - N/A   Overcast
10:43 PM 19.4 °F - 15.8 °F 86% 29.89 in 7.0 mi Calm Calm - N/A   Overcast
10:53 PM 21.9 °F - 17.1 °F 82% 29.96 in 9.0 mi Calm Calm - N/A   Overcast
11:53 PM 24.1 °F 19.7 °F 18.0 °F 77% 29.95 in 9.0 mi Variable 3.5 mph - 0.00 in   Overcast